TimeCDT,TemperatureF,Dew PointF,Humidity,Sea Level PressureIn,VisibilityMPH,Wind Direction,Wind SpeedMPH,Gust SpeedMPH,PrecipitationIn,Events,Conditions,WindDirDegrees,DateUTC
12:13 AM,57.2,53.6,88,29.47,10.0,SSE,3.5,-,N/A,,Overcast,160,2013-05-21 05:13:00
12:33 AM,57.2,53.6,88,29.48,10.0,SE,5.8,-,N/A,,Overcast,140,2013-05-21 05:33:00
12:54 AM,57.2,53.6,88,29.47,10.0,South,3.5,-,N/A,,Overcast,170,2013-05-21 05:54:00
1:13 AM,57.2,53.6,88,29.47,10.0,SE,4.6,-,N/A,,Overcast,140,2013-05-21 06:13:00
1:33 AM,57.2,53.6,88,29.47,10.0,SE,4.6,-,N/A,,Overcast,140,2013-05-21 06:33:00
1:54 AM,57.2,51.8,82,29.47,10.0,Calm,Calm,-,N/A,,Overcast,0,2013-05-21 06:54:00
2:14 AM,57.2,51.8,82,29.47,10.0,East,4.6,-,N/A,,Overcast,90,2013-05-21 07:14:00
2:34 AM,55.4,51.8,88,29.46,10.0,East,4.6,-,N/A,,Overcast,90,2013-05-21 07:34:00
2:54 AM,55.4,51.8,88,29.47,10.0,East,4.6,-,N/A,,Overcast,90,2013-05-21 07:54:00
3:13 AM,55.4,53.6,94,29.46,10.0,East,3.5,-,N/A,,Overcast,90,2013-05-21 08:13:00
3:34 AM,55.4,53.6,94,29.47,7.0,East,3.5,-,N/A,,Scattered Clouds,100,2013-05-21 08:34:00
3:53 AM,55.4,53.6,94,29.47,7.0,East,3.5,-,N/A,,Mostly Cloudy,90,2013-05-21 08:53:00
4:14 AM,55.4,53.6,94,29.47,5.0,Calm,Calm,-,N/A,,Mostly Cloudy,0,2013-05-21 09:14:00
4:34 AM,55.4,53.6,94,29.47,5.0,ESE,3.5,-,N/A,,Scattered Clouds,110,2013-05-21 09:34:00
4:53 AM,55.4,53.6,94,29.47,3.0,East,3.5,-,N/A,Rain,Light Rain,90,2013-05-21 09:53:00
5:14 AM,55.4,53.6,94,29.47,3.0,NE,4.6,-,N/A,,Drizzle,50,2013-05-21 10:14:00
5:34 AM,55.4,55.4,100,29.48,2.5,East,4.6,-,N/A,,Drizzle,80,2013-05-21 10:34:00
5:53 AM,57.2,55.4,94,29.48,2.5,ENE,3.5,-,N/A,,Drizzle,70,2013-05-21 10:53:00
6:14 AM,57.2,55.4,94,29.48,2.5,Calm,Calm,-,N/A,,Drizzle,0,2013-05-21 11:14:00
6:34 AM,57.2,55.4,94,29.49,5.0,ENE,11.5,18.4,N/A,Rain,Light Rain,70,2013-05-21 11:34:00
6:53 AM,55.4,55.4,100,29.49,7.0,ENE,12.7,-,0.01,Rain,Light Rain,70,2013-05-21 11:53:00
7:14 AM,55.4,53.6,94,29.49,7.0,ENE,13.8,-,N/A,Rain,Light Rain,70,2013-05-21 12:14:00
7:34 AM,55.4,53.6,94,29.50,10.0,ENE,11.5,-,0.01,Rain,Rain,70,2013-05-21 12:34:00
7:53 AM,53.6,53.6,100,29.50,5.0,ENE,15.0,-,0.01,Rain,Rain,60,2013-05-21 12:53:00
8:14 AM,53.6,51.8,94,29.51,7.0,ENE,12.7,-,0.01,Rain,Light Rain,60,2013-05-21 13:14:00
8:34 AM,53.6,51.8,94,29.51,5.0,ENE,16.1,-,0.01,Rain,Light Rain,60,2013-05-21 13:34:00
8:53 AM,53.6,51.8,94,29.52,7.0,ENE,15.0,19.6,0.01,Rain,Light Rain,60,2013-05-21 13:53:00
9:14 AM,53.6,51.8,94,29.53,7.0,ENE,18.4,-,N/A,Rain,Light Rain,70,2013-05-21 14:14:00
9:33 AM,53.6,51.8,94,29.53,5.0,ENE,13.8,-,N/A,,Light Drizzle,60,2013-05-21 14:33:00
9:53 AM,53.6,51.8,94,29.53,5.0,ENE,18.4,-,0.01,Rain,Rain,70,2013-05-21 14:53:00
10:14 AM,53.6,51.8,94,29.54,4.0,ENE,15.0,-,N/A,Rain,Light Rain,70,2013-05-21 15:14:00
10:33 AM,53.6,53.6,100,29.54,4.0,ENE,16.1,-,0.02,Rain,Light Rain,70,2013-05-21 15:33:00
10:53 AM,53.6,53.6,100,29.55,3.0,ENE,15.0,-,0.03,Rain,Light Rain,70,2013-05-21 15:53:00
11:14 AM,53.6,53.6,100,29.55,4.0,ENE,15.0,-,0.01,Rain,Light Rain,70,2013-05-21 16:14:00
11:33 AM,55.4,53.6,94,29.55,5.0,ENE,12.7,-,0.02,Rain,Light Rain,70,2013-05-21 16:33:00
11:53 AM,55.4,53.6,94,29.56,7.0,ENE,15.0,-,0.03,Rain,Light Rain,60,2013-05-21 16:53:00
12:14 PM,53.6,53.6,100,29.56,5.0,ENE,17.3,23.0,N/A,Rain,Rain,70,2013-05-21 17:14:00
12:33 PM,53.6,53.6,100,29.57,7.0,ENE,15.0,-,N/A,,Light Drizzle,70,2013-05-21 17:33:00
12:53 PM,53.6,53.6,100,29.58,5.0,ENE,15.0,-,N/A,,Drizzle,60,2013-05-21 17:53:00
1:14 PM,53.6,53.6,100,29.59,10.0,ENE,13.8,-,0.01,,Drizzle,70,2013-05-21 18:14:00
1:33 PM,53.6,53.6,100,29.59,10.0,NE,15.0,-,0.01,,Light Drizzle,50,2013-05-21 18:33:00
1:54 PM,53.6,51.8,94,29.60,10.0,NE,15.0,-,0.02,Rain,Light Rain,40,2013-05-21 18:54:00
2:14 PM,53.6,51.8,94,29.60,10.0,NE,13.8,-,0.02,Rain,Light Rain,40,2013-05-21 19:14:00
2:33 PM,53.6,51.8,94,29.61,10.0,NE,16.1,-,0.03,Rain,Light Rain,40,2013-05-21 19:33:00
2:54 PM,51.8,51.8,100,29.62,7.0,NNE,12.7,-,0.05,Rain,Light Rain,30,2013-05-21 19:54:00
3:14 PM,51.8,51.8,100,29.63,7.0,NE,12.7,18.4,0.01,Rain,Rain,40,2013-05-21 20:14:00
3:33 PM,51.8,51.8,100,29.64,7.0,NE,13.8,-,0.02,Rain,Light Rain,40,2013-05-21 20:33:00
3:54 PM,51.8,51.8,100,29.64,7.0,NE,10.4,-,0.03,Rain,Light Rain,40,2013-05-21 20:54:00
4:14 PM,51.8,51.8,100,29.65,7.0,NE,12.7,-,0.01,Rain,Light Rain,40,2013-05-21 21:14:00
4:33 PM,51.8,51.8,100,29.66,5.0,NNE,12.7,16.1,0.05,Rain,Rain,30,2013-05-21 21:33:00
4:54 PM,51.8,50.0,94,29.67,10.0,NE,15.0,-,0.07,Rain,Light Rain,50,2013-05-21 21:54:00
5:14 PM,51.8,50.0,94,29.67,10.0,NE,15.0,-,0.02,Rain,Light Rain,40,2013-05-21 22:14:00
5:33 PM,51.8,50.0,94,29.67,10.0,NE,12.7,-,0.04,Rain,Light Rain,50,2013-05-21 22:33:00
5:54 PM,51.8,50.0,94,29.67,10.0,NE,11.5,-,0.07,Rain,Rain,40,2013-05-21 22:54:00
6:14 PM,51.8,50.0,94,29.67,10.0,NE,13.8,-,0.01,Rain,Light Rain,40,2013-05-21 23:14:00
6:33 PM,51.8,50.0,94,29.67,10.0,NE,15.0,-,0.01,Rain,Light Rain,40,2013-05-21 23:33:00
6:54 PM,51.8,51.8,100,29.67,10.0,NNE,15.0,-,0.02,Rain,Light Rain,30,2013-05-21 23:54:00
7:14 PM,51.8,50.0,94,29.68,10.0,NE,18.4,-,N/A,Rain,Light Rain,40,2013-05-22 00:14:00
7:33 PM,51.8,50.0,94,29.68,10.0,NE,17.3,-,N/A,,Overcast,40,2013-05-22 00:33:00
7:54 PM,51.8,48.2,88,29.69,10.0,NE,15.0,-,N/A,,Overcast,40,2013-05-22 00:54:00
8:14 PM,51.8,46.4,82,29.70,10.0,NE,12.7,-,N/A,,Overcast,50,2013-05-22 01:14:00
8:33 PM,51.8,46.4,82,29.70,10.0,NE,15.0,20.7,N/A,Rain,Light Rain,50,2013-05-22 01:33:00
8:54 PM,50.0,46.4,87,29.71,10.0,NE,17.3,-,0.02,Rain,Light Rain,40,2013-05-22 01:54:00
9:14 PM,50.0,46.4,87,29.72,10.0,NE,15.0,18.4,0.01,Rain,Light Rain,50,2013-05-22 02:14:00
9:33 PM,50.0,46.4,87,29.73,10.0,NE,10.4,-,0.02,Rain,Light Rain,50,2013-05-22 02:33:00
9:54 PM,50.0,46.4,87,29.75,10.0,NE,9.2,-,0.04,Rain,Light Rain,50,2013-05-22 02:54:00
10:13 PM,50.0,46.4,87,29.75,10.0,NE,16.1,-,0.02,Rain,Light Rain,50,2013-05-22 03:13:00
10:33 PM,48.2,46.4,93,29.76,10.0,NE,13.8,-,0.03,Rain,Light Rain,50,2013-05-22 03:33:00
10:53 PM,48.2,46.4,93,29.76,10.0,NE,10.4,-,0.05,Rain,Light Rain,50,2013-05-22 03:53:00
11:13 PM,48.2,46.4,93,29.76,10.0,NE,10.4,-,0.01,Rain,Light Rain,40,2013-05-22 04:13:00
11:34 PM,48.2,46.4,93,29.76,10.0,NE,11.5,-,0.02,Rain,Light Rain,50,2013-05-22 04:34:00
11:53 PM,48.2,46.4,93,29.76,10.0,NE,10.4,-,0.03,,Drizzle,40,2013-05-22 04:53:00